Estherville, IA

1:09 AM CDT on May 25, 2018 (GMT -0500)
Estherville Municipal

Weather History for KEST - August, 2013

Change the Weather History Date:

Sunday, August 11, 2013

  Actual Average Record
Temperature  
Mean Temperature 65 °F 70 °F  
Max Temperature 72 °F 80 °F 97 °F (1976)
Min Temperature 58 °F 60 °F 42 °F (1986)
Degree Days  
Heating Degree Days 0 0  
Month to date heating degree days 5 0  
Since 1 June heating degree days 81 50  
Since 1 July heating degree days 27 9  
Cooling Degree Days 0 5  
Month to date cooling degree days 19 64  
Year to date cooling degree days 433 456  
Since 1 June cooling degree days 400 420  
Growing Degree Days 16 (Base 50)    
Moisture  
Dew Point 64 °F    
Average Humidity 90    
Maximum Humidity 100    
Minimum Humidity 79    
Precipitation  
Precipitation 0.88 in 0.13 in 1.15 in (1953)
Month to date precipitation 1.25 1.59  
Sea Level Pressure  
Sea Level Pressure 30.07 in    
Wind  
Wind Speed 5 mph (SE)    
Max Wind Speed 14 mph    
Max Gust Speed 20 mph    
Visibility 5 miles    
Events Rain , Thunderstorm    
T = Trace of Precipitation, MM = Missing Value Source: NWS Daily Summary

Daily Weather History Graph

Daily Weather History Graph

Search for Another Location

Airport or City:

Astronomy

Aug. 11, 2013 Rise Set
Actual Time 6:19 AM CDT 8:27 PM CDT
Civil Twilight 5:48 AM CDT 8:58 PM CDT
Nautical Twilight 5:09 AM CDT 9:37 PM CDT
Astronomical Twilight 4:27 AM CDT 10:19 PM CDT
Moon 11:19 AM CDT (8/11) 10:32 PM CDT (8/11)
Length of Visible Light 15h 10m
Length of Day
14h 07m
Waxing Crescent, 22% of the Moon is Illuminated
Aug 11
Waxing Crescent
Aug 14
First Quarter
Aug 20
Full
Aug 28
Last Quarter
Sep 5
New

Hourly Weather History & Observations

Time (CDT) Temp. Dew Point Humidity Pressure Visibility Wind Dir Wind Speed Gust Speed Precip Events Conditions
12:52 AM 64.0 °F 64.0 °F 100% 30.09 in 4.0 mi East 4.6 mph - 0.00 in Rain Light Rain
1:52 AM 64.0 °F 64.0 °F 100% 30.09 in 4.0 mi South 5.8 mph - 0.04 in Rain Light Rain
2:33 AM 64.4 °F 64.4 °F 100% 30.09 in 2.5 mi South 4.6 mph - 0.13 in Rain , Thunderstorm Heavy Rain
2:44 AM 64.4 °F 64.4 °F 100% 30.09 in 4.0 mi SSE 3.5 mph - 0.15 in Rain , Thunderstorm Light Rain
2:52 AM 64.0 °F 64.0 °F 100% 30.06 in 4.0 mi SSE 5.8 mph - 0.17 in Rain Rain
3:52 AM 64.9 °F 64.0 °F 97% 30.04 in 5.0 mi South 3.5 mph - 0.10 in Rain Rain
4:52 AM 64.0 °F 63.0 °F 96% 30.06 in 8.0 mi NW 6.9 mph - 0.07 in   Mostly Cloudy
5:18 AM 64.4 °F 64.4 °F 100% 30.09 in 6.0 mi WNW 8.1 mph - 0.00 in   Overcast
5:41 AM 64.4 °F 64.4 °F 100% 30.10 in 5.0 mi WSW 6.9 mph - 0.02 in Rain Light Rain
5:52 AM 64.0 °F 64.0 °F 100% 30.09 in 4.0 mi WSW 6.9 mph - 0.04 in Rain Light Rain
6:52 AM 63.0 °F 63.0 °F 100% 30.10 in 5.0 mi WSW 10.4 mph - 0.05 in Rain Rain
7:17 AM 62.6 °F 62.6 °F 100% 30.08 in 2.5 mi SW 10.4 mph - 0.04 in Rain Light Rain
7:26 AM 62.6 °F 62.6 °F 100% 30.09 in 4.0 mi WSW 8.1 mph - 0.04 in Rain Light Rain
7:40 AM 62.6 °F 62.6 °F 100% 30.09 in 1.8 mi WSW 6.9 mph - 0.06 in Rain Light Rain
7:52 AM 63.0 °F 63.0 °F 100% 30.06 in 2.0 mi SSW 3.5 mph - 0.08 in Rain Light Rain
8:11 AM 62.6 °F 62.6 °F 100% 30.09 in 1.8 mi WSW 3.5 mph - 0.01 in Rain Light Rain
8:22 AM 62.6 °F 62.6 °F 100% 30.09 in 2.0 mi NW 4.6 mph - 0.02 in   Overcast
8:32 AM 62.6 °F 62.6 °F 100% 30.13 in 1.2 mi WNW 8.1 mph - 0.04 in Rain Rain
8:52 AM 63.0 °F 63.0 °F 100% 30.11 in 1.8 mi West 3.5 mph - 0.07 in Rain Light Rain
9:25 AM 62.6 °F 62.6 °F 100% 30.09 in 1.0 mi SE 3.5 mph - 0.11 in Rain Heavy Rain
9:42 AM 62.6 °F 62.6 °F 100% 30.09 in 0.8 mi South 6.9 mph - 0.18 in Rain Light Rain
9:45 AM 62.6 °F 62.6 °F 100% 30.09 in 1.2 mi SSE 5.8 mph - 0.18 in Rain Light Rain
9:50 AM 62.6 °F 62.6 °F 100% 30.09 in 2.0 mi SSE 3.5 mph - 0.18 in Rain , Thunderstorm Light Rain
9:52 AM 62.1 °F 62.1 °F 100% 30.09 in 2.0 mi Calm Calm - 0.19 in Rain , Thunderstorm Light Rain
10:01 AM 62.6 °F 62.6 °F 100% 30.09 in 1.8 mi Calm Calm - 0.00 in Rain , Thunderstorm Light Rain
10:11 AM 62.6 °F 62.6 °F 100% 30.08 in 2.0 mi SE 4.6 mph - 0.00 in Rain Light Rain
10:34 AM 64.4 °F 64.4 °F 100% 30.08 in 3.0 mi Variable 4.6 mph - 0.01 in   Overcast
10:52 AM 66.9 °F 64.9 °F 93% 30.07 in 5.0 mi SE 5.8 mph - 0.01 in   Overcast
11:06 AM 64.4 °F 62.6 °F 94% 30.07 in 2.5 mi SE 5.8 mph - 0.05 in Rain , Thunderstorm Heavy Rain
11:20 AM 66.2 °F 64.4 °F 94% 30.07 in 5.0 mi SSE 6.9 mph - 0.05 in Thunderstorm Overcast
11:52 AM 66.0 °F 64.9 °F 96% 30.06 in 5.0 mi East 3.5 mph - 0.06 in Rain Light Rain
11:59 AM 66.2 °F 66.2 °F 100% 30.07 in 5.0 mi ENE 4.6 mph - 0.00 in Thunderstorm Overcast
12:14 PM 69.8 °F 66.2 °F 88% 30.07 in 5.0 mi East 4.6 mph - 0.00 in   Mostly Cloudy
12:52 PM 72.0 °F 66.0 °F 81% 30.05 in 7.0 mi SE 8.1 mph - 0.00 in   Overcast
1:52 PM 72.0 °F 64.9 °F 78% 30.05 in 8.0 mi East 5.8 mph - N/A   Overcast
2:10 PM 71.6 °F 64.4 °F 78% 30.06 in 8.0 mi East 4.6 mph - N/A   Overcast
2:52 PM 70.0 °F 66.9 °F 90% 30.04 in 7.0 mi NE 9.2 mph - N/A   Overcast
3:11 PM 69.8 °F 68.0 °F 94% 30.05 in 7.0 mi NE 8.1 mph - N/A   Overcast
3:26 PM 69.8 °F 66.2 °F 88% 30.05 in 7.0 mi NE 10.4 mph - N/A   Overcast
3:45 PM 69.8 °F 66.2 °F 88% 30.05 in 7.0 mi ENE 9.2 mph - N/A   Overcast
3:52 PM 70.0 °F 66.9 °F 90% 30.04 in 7.0 mi NE 10.4 mph - N/A   Overcast
4:25 PM 69.8 °F 66.2 °F 88% 30.05 in 8.0 mi NE 8.1 mph - N/A   Overcast
4:52 PM 71.1 °F 66.0 °F 84% 30.04 in 9.0 mi NE 10.4 mph - N/A   Overcast
5:48 PM 71.6 °F 64.4 °F 78% 30.04 in 9.0 mi NE 8.1 mph - N/A   Scattered Clouds
5:52 PM 72.0 °F 66.0 °F 81% 30.03 in 9.0 mi ENE 8.1 mph - N/A   Scattered Clouds
6:52 PM 70.0 °F 64.9 °F 84% 30.02 in 9.0 mi East 4.6 mph - N/A   Scattered Clouds
7:52 PM 68.0 °F 64.0 °F 87% 30.02 in 9.0 mi NE 4.6 mph - N/A   Clear
8:52 PM 64.0 °F 64.0 °F 100% 30.03 in 7.0 mi Calm Calm - N/A   Clear
9:52 PM 62.1 °F 62.1 °F 100% 30.05 in 6.0 mi Calm Calm - N/A   Clear
10:52 PM 60.1 °F 60.1 °F 100% 30.05 in 5.0 mi Calm Calm - N/A   Clear
11:52 PM 59.0 °F 59.0 °F 100% 30.05 in 5.0 mi Calm Calm - N/A   Clear